Temperature
12 12 12 12 12 12 12 12 12 12 12 12 12 12 11 11 11 11 11 11 11 11 11 10 10 10 9 9 9 9 9 9 9 9 9 9 9 9 9 9 9 9 9
11 11 11 11 11 11 11 11 11 11 11 11 11 11 11 11 11 11 11 11 11 11 10 10 10 10 9 9 9 9 9 8 8 8 9 9 8 8 8 8 8 8 8
11 11 11 11 11 11 11 11 11 11 11 11 11 11 11 11 11 11 11 11 10 10 10 10 10 10 9 9 9 8 8 8 8 8 8 8 8 8 8 8 8 8 8
11 11 10 11 10 10 10 10 10 10 10 10 10 10 10 10 10 10 10 10 10 10 10 10 10 9 9 9 9 8 8 8 8 8 8 8 8 8 8 8 8 8 8
10 10 10 10 10 10 10 10 10 10 10 10 10 10 10 10 10 9 9 9 9 9 9 9 9 9 9 9 8 8 8 8 8 8 8 7 7 7 7 8 8 8 8
10 10 10 10 9 9 9 9 9 9 9 9 9 9 9 9 9 9 9 9 9 9 9 8 8 8 8 8 8 8 8 8 7 7 7 7 7 7 7 7 7 7 7
9 9 9 9 9 9 9 9 9 8 8 8 8 8 8 8 8 8 8 8 8 8 8 8 8 8 8 8 8 7 7 7 7 7 7 7 7 7 7 7 7 7 7
9 9 9 9 9 8 8 8 8 8 8 8 7 7 7 7 8 8 8 8 8 8 8 8 8 7 7 7 7 7 7 7 6 6 6 6 6 6 6 6 6 6 6
8 8 8 8 8 8 8 8 8 7 7 7 7 6 6 7 6 7 7 7 7 7 7 7 7 7 7 7 7 6 6 6 6 6 6 6 6 6 6 6 6 6 6
8 8 8 8 8 7 7 7 7 7 7 7 7 6 6 6 6 6 6 6 7 7 7 7 7 6 6 6 6 6 6 6 6 5 5 5 5 5 5 5 5 5 6
7 7 7 7 7 7 7 7 6 6 6 6 6 6 6 6 6 5 5 6 6 6 6 6 6 6 6 6 6 6 6 5 5 5 5 5 5 5 5 5 5 5 5
7 6 6 7 7 6 6 6 6 6 6 6 6 6 5 5 5 5 5 5 5 5 5 6 5 5 5 5 5 5 5 5 5 5 5 5 5 5 4 4 4 5 5
6 6 6 6 6 6 6 5 5 5 5 5 5 5 5 5 5 5 5 4 4 4 5 5 5 5 5 5 5 5 5 5 5 5 4 4 4 4 4 4 4 4 4
5 6 5 5 5 5 5 5 5 5 5 5 5 4 4 4 4 4 4 4 3 3 4 4 4 4 4 4 4 4 4 4 4 4 4 4 4 4 4 4 4 4 4
5 5 5 5 5 5 5 4 4 4 4 4 4 4 4 4 4 4 4 4 3 3 3 4 4 4 4 4 4 3 4 4 4 4 4 4 3 3 3 3 3 3 3
5 5 5 4 4 4 4 4 4 4 4 3 3 3 3 3 4 4 3 3 3 3 3 3 3 3 3 3 3 3 3 3 3 3 3 3 3 3 3 3 3 3 3
4 4 4 4 4 4 4 3 3 3 3 3 3 3 3 3 3 3 3 3 3 3 2 3 3 3 3 3 3 3 3 3 3 3 3 3 3 3 3 3 3 3 3
3 3 3 3 3 3 3 3 3 3 3 3 3 3 3 3 3 3 3 2 3 3 2 2 2 2 2 2 2 2 2 2 2 2 2 2 2 2 2 2 2 2 2
3 3 3 3 3 3 3 3 2 2 2 2 2 2 2 2 2 2 2 2 2 2 2 2 2 2 2 2 2 2 2 2 2 2 2 2 2 2 2 2 2 2 2
2 2 2 2 2 2 2 2 2 2 2 2 2 2 2 2 2 2 2 2 2 1 1 1 1 1 1 1 1 1 1 1 2 2 1 1 1 2 2 2 2 2 2
2 2 2 2 1 1 1 1 1 1 1 1 1 1 1 1 1 1 1 1 1 1 1 1 1 1 1 1 1 1 1 1 1 1 1 1 1 1 1 1 2 2 1
1 1 1 1 1 1 1 1 1 0 1 1 1 1 1 1 1 1 1 1 1 1 1 1 1 0 0 0 0 0 0 0 0 0 1 1 1 1 1 1 1 1 1
0 0 0 0 1 0 0 0 0 0 0 0 0 0 0 1 1 1 1 1 0 0 0 0 0 0 -0 0 -0 -0 -0 -0 -0 -0 -0 0 0 0 0 0 0 1 1
-0 -0 -0 -0 -0 -0 -0 -0 -0 -0 0 0 0 -0 -0 0 0 0 0 0 0 -0 -0 -0 -0 -0 -0 -1 -1 -1 -1 -1 -0 -1 -1 -1 -0 -0 -0 -0 -0 0 0
-1 -1 -1 -1 -1 -1 -1 -1 -1 -1 -0 -0 -0 -1 -1 -0 -0 -0 -0 -0 -0 -0 -1 -1 -1 -1 -1 -1 -1 -1 -1 -1 -1 -1 -1 -1 -1 -1 -0 -0 -0 -0 -0
-2 -2 -2 -2 -2 -2 -2 -1 -1 -1 -1 -1 -1 -1 -1 -1 -1 -1 -1 -1 -1 -1 -1 -1 -1 -1 -1 -1 -1 -1 -1 -2 -2 -2 -2 -2 -1 -2 -1 -1 -1 -1 -1
Wind_Speed
4 4 3 3 3 3 3 2 2 2 2 2 2 2 3 3 2 2 1 1 2 3 4 4 4 4 5 5 5 6 6 6 7 7 7 7 8 9 10 10 11 11 12
4 4 4 3 3 3 2 2 2 2 2 2 2 2 2 3 3 3 3 2 3 3 4 5 5 5 6 6 6 6 7 7 7 7 8 8 9 10 10 11 12 13 13
5 4 4 3 3 3 3 2 2 2 2 2 2 2 2 3 3 3 4 3 3 4 4 5 6 6 6 6 6 6 6 7 8 8 9 10 10 11 11 12 12 13 14
6 4 3 3 3 3 3 2 3 2 2 2 2 2 2 2 4 4 4 4 4 4 4 5 6 6 7 7 7 7 8 8 8 10 10 11 11 12 12 12 13 13 14
6 4 3 3 4 3 3 3 2 3 3 2 2 3 3 3 3 3 4 4 4 4 4 4 5 6 7 8 8 9 9 9 9 10 11 11 12 12 13 13 13 13 13
6 5 4 4 4 3 3 3 3 3 3 2 2 3 3 4 3 4 4 4 4 5 5 4 4 5 6 7 8 9 9 10 10 11 11 12 12 13 13 13 13 13 13
6 5 4 5 4 4 4 4 3 3 3 2 2 3 3 4 4 4 4 4 5 5 5 5 5 4 5 6 7 8 9 10 11 11 12 12 12 13 14 14 13 13 14
5 5 5 5 5 4 5 5 4 3 3 3 2 3 3 3 3 4 4 4 5 4 5 5 5 5 5 5 6 7 9 11 12 12 12 13 13 14 14 13 14 14 14
6 6 6 5 5 5 5 6 6 5 4 4 4 3 3 3 2 3 5 5 4 4 4 5 6 6 6 6 6 6 8 10 12 13 13 14 14 14 14 14 14 14 14
6 6 6 6 5 5 6 6 6 6 5 5 4 4 4 3 3 2 3 4 5 5 6 5 5 6 7 6 6 7 8 9 11 13 14 14 14 13 14 14 14 14 15
5 6 6 5 5 5 6 7 6 7 6 6 5 4 4 4 5 5 5 4 4 4 5 5 5 5 6 7 6 7 8 9 11 12 13 13 14 14 14 14 14 14 14
4 6 6 6 6 5 6 7 7 7 6 7 6 5 5 4 4 5 6 6 6 5 5 5 5 5 5 6 6 7 7 8 10 11 12 13 14 14 14 14 14 14 14
4 5 5 6 5 6 6 6 6 7 7 7 7 6 6 6 5 5 6 6 6 5 5 5 4 5 5 5 6 6 7 8 9 10 10 11 12 13 13 13 14 14 14
4 5 6 6 6 6 6 6 6 6 6 7 7 7 6 6 5 6 6 6 6 5 6 6 4 4 5 5 6 6 6 7 9 10 10 11 12 12 13 13 14 14 14
4 5 6 6 6 6 6 6 5 6 6 6 6 7 6 5 5 5 6 6 6 6 6 5 4 4 4 5 5 6 7 8 9 10 11 11 12 12 13 13 14 14 13
5 5 6 6 5 5 5 5 5 6 6 6 5 6 6 5 5 5 5 6 6 7 7 5 5 5 5 6 7 8 8 9 10 10 11 11 12 12 13 13 13 13 14
4 4 5 5 5 5 5 5 6 6 6 6 6 7 7 7 5 5 5 6 6 6 7 7 6 6 7 6 6 7 7 7 7 9 10 11 12 13 13 13 13 13 13
4 4 4 4 5 5 5 6 6 6 7 7 7 7 7 6 7 6 6 7 6 6 7 8 7 6 6 6 6 7 6 7 7 9 10 11 12 12 12 13 12 12 12
3 3 4 4 4 5 5 5 5 6 6 7 7 7 7 6 7 6 7 6 5 5 6 7 7 5 5 5 6 6 7 7 7 8 9 10 11 12 12 11 11 11 11
3 3 3 3 4 4 5 4 5 5 5 6 6 6 6 6 7 7 6 6 6 5 5 5 6 5 5 5 5 5 6 6 6 6 7 8 10 11 11 10 10 9 10
2 2 2 3 3 3 4 4 4 4 4 5 5 5 5 6 7 6 5 6 5 5 5 5 5 5 5 4 4 4 6 6 7 5 6 6 6 6 6 7 7 8 9
1 1 1 2 3 3 4 5 4 4 4 4 5 4 4 4 5 5 6 6 6 6 6 6 6 6 6 5 5 5 5 5 5 3 5 6 5 6 5 5 6 7 8
1 1 1 1 2 3 3 3 3 3 3 3 4 4 3 4 4 4 4 5 6 7 8 7 7 7 7 6 6 6 6 6 6 5 5 5 5 6 5 5 6 7 7
1 2 2 2 2 2 2 3 2 2 2 3 4 4 4 4 4 4 3 4 4 5 6 6 6 7 6 6 6 6 7 7 6 4 4 4 5 5 5 5 5 6 6
2 2 2 2 2 3 2 2 1 1 2 3 3 3 3 4 4 4 3 4 4 4 3 4 6 6 6 6 6 4 5 5 5 4 3 3 4 5 5 4 4 5 6
2 2 3 3 3 3 3 2 2 1 2 2 2 3 3 3 4 4 3 4 4 5 4 3 3 4 4 4 5 4 5 5 4 3 2 3 3 3 3 3 4 4 5
Wind_Direction
166 165 161 152 150 148 154 156 165 166 168 169 181 194 197 208 221 218 192 154 267 280 282 286 288 287 289 289 289 287 289 291 296 298 301 301 301 301 302 303 306 306 307
170 170 166 163 159 158 158 172 181 183 192 194 203 211 223 224 226 224 233 230 239 266 279 282 283 284 282 284 288 288 288 288 289 292 296 297 298 299 299 300 301 301 303
170 173 173 172 173 168 161 172 181 188 201 209 225 232 234 241 238 236 237 246 246 246 266 281 283 284 284 283 287 290 289 291 292 292 293 293 294 294 296 298 298 299 299
172 174 176 179 178 170 167 182 189 194 208 224 238 243 241 243 250 251 247 242 246 251 249 266 281 283 288 286 285 288 289 289 289 291 291 290 290 290 292 295 298 300 301
177 174 179 180 177 181 186 192 203 209 213 230 246 253 252 248 247 248 254 248 244 249 255 252 263 276 286 292 292 290 288 287 287 288 288 288 289 290 290 292 294 298 302
183 182 185 186 185 187 191 198 211 219 221 231 248 260 262 256 249 247 254 249 245 249 257 265 265 264 271 286 293 292 291 290 289 289 290 289 289 289 291 291 293 296 299
191 193 190 189 190 194 198 202 204 213 221 224 253 265 261 247 244 242 248 250 247 249 256 266 270 275 276 273 282 289 291 292 293 293 294 294 293 291 291 291 293 295 297
196 196 195 195 196 198 200 202 204 218 222 223 243 264 263 246 233 242 249 253 254 249 256 264 264 269 279 282 284 285 290 295 295 295 296 296 295 295 295 296 297 297 296
202 203 203 203 202 203 206 206 208 221 227 231 237 246 257 254 272 229 236 244 253 267 267 270 264 265 269 273 281 282 286 293 294 294 295 296 295 295 295 297 298 299 301
209 205 206 207 207 210 212 216 217 225 225 230 234 246 265 280 266 262 234 240 256 265 268 268 265 266 266 270 274 282 288 290 290 294 295 295 294 294 295 296 298 300 301
214 209 208 212 215 218 219 223 228 228 229 232 233 243 249 260 260 262 268 266 262 259 263 264 259 260 261 266 273 282 289 289 290 293 293 294 296 296 296 297 299 300 301
215 212 212 216 220 223 227 229 232 230 232 237 238 238 242 246 248 251 263 272 275 273 265 262 264 264 264 267 273 282 287 290 293 294 294 295 297 298 299 300 300 299 302
223 218 216 221 225 228 229 233 237 238 234 236 240 243 245 249 252 252 258 267 273 278 273 261 256 263 264 267 274 277 277 285 292 296 299 300 299 299 299 300 300 300 302
236 228 223 225 227 227 228 229 234 238 238 238 242 244 247 248 245 247 253 261 270 270 265 265 259 258 264 268 278 276 277 283 290 295 297 298 299 299 298 296 296 295 297
243 233 226 223 228 228 227 228 231 235 239 241 242 243 246 247 244 249 250 250 255 267 269 266 266 263 274 279 279 280 282 284 287 289 291 292 294 294 293 293 292 290 292
239 232 226 224 226 227 228 230 235 234 237 242 244 243 245 246 246 246 247 251 251 255 265 270 271 280 281 279 279 280 280 282 278 281 283 288 291 292 289 289 289 290 292
241 234 227 226 226 228 230 233 239 238 237 241 243 244 246 247 249 249 247 248 248 248 258 272 274 278 275 277 282 283 284 280 279 279 282 287 290 290 286 287 286 289 290
246 243 230 227 230 233 235 236 240 242 239 238 241 242 245 244 247 251 249 249 250 250 254 265 273 276 274 275 281 284 290 284 283 282 282 286 288 289 286 285 283 284 288
249 243 231 230 233 238 241 243 245 247 248 247 246 244 244 242 246 248 251 253 254 255 255 259 269 272 273 274 283 284 285 288 288 285 282 283 285 289 288 286 284 284 285
247 240 233 238 242 243 244 249 250 251 255 257 255 253 251 247 249 251 255 254 255 254 253 256 266 273 273 274 277 286 290 291 293 292 288 289 287 284 283 284 284 288 287
259 249 238 243 250 249 244 249 254 254 253 259 263 262 260 257 258 260 259 254 250 248 248 252 261 268 271 272 274 282 285 295 295 291 297 294 292 290 291 286 283 290 291
332 301 274 260 263 265 257 256 258 252 254 256 262 268 271 260 261 262 265 264 258 250 249 250 256 260 266 273 279 277 284 292 294 297 300 295 294 292 297 297 299 297 298
345 333 318 298 285 281 273 264 256 254 259 259 261 268 279 273 270 270 267 265 262 262 259 259 257 263 270 272 273 276 274 278 281 296 300 286 291 291 300 301 308 308 306
347 333 328 321 315 304 292 265 271 264 273 274 272 271 276 280 279 276 266 264 268 272 266 258 261 270 273 274 267 268 275 280 283 280 284 278 290 298 303 299 306 308 313
343 339 333 332 325 311 313 297 298 266 268 281 285 284 280 282 288 282 268 269 278 287 288 264 265 270 281 287 284 273 271 275 285 284 283 279 289 300 300 295 301 301 307
330 340 341 337 325 309 324 332 328 273 279 288 295 300 299 290 290 286 276 274 279 287 291 284 276 277 279 283 281 267 267 270 281 283 275 284 288 310 303 297 305 308 309
Height
1509 1510 1512 1512 1513 1514 1515 1516 1517 1517 1518 1518 1519 1519 1519 1518 1518 1518 1518 1518 1517 1517 1516 1516 1515 1515 1514 1514 1513 1512 1511 1510 1509 1509 1508 1507 1505 1504 1503 1502 1500 1499 1498
1507 1508 1509 1510 1511 1512 1513 1514 1515 1515 1515 1516 1516 1516 1516 1516 1516 1516 1516 1515 1515 1515 1514 1513 1513 1512 1512 1511 1510 1509 1508 1508 1507 1506 1505 1504 1503 1501 1500 1499 1498 1496 1495
1504 1505 1507 1507 1509 1510 1510 1511 1512 1513 1513 1513 1513 1513 1513 1513 1513 1513 1513 1512 1512 1511 1511 1510 1510 1509 1508 1508 1507 1506 1505 1504 1504 1503 1502 1501 1500 1498 1497 1496 1494 1493 1491
1501 1503 1504 1505 1506 1507 1508 1509 1509 1510 1510 1510 1510 1510 1510 1510 1510 1510 1509 1509 1509 1508 1508 1507 1507 1506 1505 1505 1504 1503 1502 1501 1500 1499 1498 1497 1496 1495 1494 1492 1491 1489 1487
1498 1500 1501 1502 1503 1504 1505 1506 1506 1507 1507 1507 1507 1507 1506 1506 1506 1506 1506 1506 1505 1505 1505 1504 1503 1502 1502 1501 1500 1500 1499 1498 1497 1496 1495 1494 1493 1492 1490 1489 1487 1486 1484
1495 1497 1498 1499 1500 1501 1501 1502 1503 1503 1504 1504 1503 1503 1503 1503 1502 1502 1502 1502 1502 1501 1501 1500 1500 1499 1498 1497 1496 1496 1495 1494 1493 1492 1491 1490 1489 1488 1487 1485 1484 1482 1480
1492 1493 1494 1495 1496 1497 1498 1499 1500 1500 1500 1500 1500 1500 1499 1499 1498 1498 1498 1498 1498 1498 1497 1497 1496 1495 1494 1493 1492 1491 1491 1490 1489 1488 1487 1486 1485 1484 1483 1481 1480 1478 1476
1488 1490 1491 1492 1493 1493 1494 1495 1496 1496 1496 1497 1498 1497 1496 1496 1494 1494 1494 1494 1494 1494 1493 1492 1492 1491 1490 1489 1488 1487 1487 1486 1485 1484 1483 1482 1481 1479 1478 1477 1475 1474 1472
1485 1486 1487 1488 1489 1490 1490 1491 1492 1492 1493 1494 1494 1495 1494 1492 1491 1490 1489 1490 1489 1489 1488 1488 1487 1487 1486 1485 1484 1483 1482 1481 1481 1480 1478 1477 1476 1475 1474 1472 1471 1469 1467
1481 1482 1483 1484 1485 1486 1487 1488 1488 1489 1490 1490 1490 1490 1491 1490 1490 1487 1486 1486 1485 1484 1484 1483 1483 1483 1482 1481 1480 1479 1478 1477 1476 1475 1474 1473 1471 1470 1469 1468 1466 1464 1462
1477 1478 1479 1480 1481 1482 1482 1484 1484 1485 1485 1486 1486 1486 1486 1486 1486 1485 1482 1481 1481 1481 1480 1479 1479 1478 1477 1477 1476 1474 1473 1472 1471 1470 1469 1467 1466 1465 1464 1462 1461 1459 1458
1473 1474 1475 1476 1477 1478 1478 1479 1480 1480 1481 1482 1482 1482 1482 1482 1482 1481 1479 1477 1477 1477 1476 1475 1474 1474 1473 1472 1471 1470 1469 1467 1466 1465 1463 1462 1461 1460 1458 1457 1456 1454 1452
1469 1470 1471 1472 1473 1473 1474 1475 1475 1476 1476 1477 1477 1477 1478 1478 1478 1477 1476 1474 1473 1472 1471 1471 1470 1469 1468 1467 1466 1465 1464 1462 1461 1460 1458 1457 1455 1454 1452 1451 1450 1449 1447
1465 1466 1467 1468 1468 1469 1470 1470 1471 1471 1472 1472 1472 1472 1473 1473 1473 1473 1472 1471 1469 1468 1467 1466 1466 1465 1464 1463 1462 1460 1459 1458 1456 1455 1453 1452 1450 1449 1448 1446 1445 1444 1442
1462 1462 1463 1463 1464 1465 1465 1465 1466 1466 1467 1467 1467 1468 1468 1468 1468 1468 1468 1467 1468 1465 1463 1462 1462 1460 1459 1458 1457 1456 1454 1453 1451 1450 1448 1447 1445 1444 1442 1441 1440 1438 1437
1458 1458 1458 1459 1460 1460 1461 1461 1461 1462 1462 1462 1463 1463 1463 1463 1463 1463 1463 1462 1462 1462 1459 1457 1457 1456 1455 1454 1452 1451 1450 1448 1447 1445 1443 1442 1440 1439 1437 1436 1434 1433 1431
1454 1454 1454 1455 1455 1456 1457 1457 1457 1457 1457 1457 1458 1458 1458 1459 1458 1458 1458 1458 1457 1457 1454 1453 1453 1452 1450 1449 1448 1446 1445 1444 1442 1440 1439 1437 1435 1433 1432 1430 1429 1427 1426
1450 1450 1450 1451 1451 1452 1452 1452 1452 1452 1452 1453 1453 1454 1454 1454 1454 1454 1453 1453 1452 1452 1451 1449 1448 1447 1446 1445 1443 1442 1440 1439 1438 1436 1434 1432 1430 1428 1426 1425 1423 1421 1420
1445 1446 1446 1447 1447 1448 1448 1448 1448 1448 1448 1448 1449 1449 1449 1448 1448 1449 1448 1448 1447 1447 1446 1445 1443 1442 1441 1440 1439 1438 1436 1434 1433 1431 1430 1427 1425 1423 1421 1419 1418 1416 1415
1442 1442 1442 1443 1443 1443 1444 1443 1443 1443 1443 1444 1444 1444 1444 1443 1444 1444 1444 1443 1443 1442 1441 1440 1439 1438 1437 1436 1435 1433 1432 1430 1428 1427 1425 1423 1421 1419 1417 1415 1413 1411 1410
1439 1439 1439 1439 1439 1439 1439 1440 1439 1439 1439 1439 1439 1439 1439 1439 1439 1439 1439 1438 1438 1438 1437 1436 1435 1434 1433 1432 1430 1429 1428 1426 1424 1423 1421 1419 1417 1415 1413 1411 1409 1407 1406
1436 1436 1436 1436 1436 1436 1436 1436 1436 1435 1435 1435 1435 1435 1435 1435 1434 1434 1434 1434 1434 1433 1432 1432 1430 1430 1429 1428 1427 1426 1424 1422 1420 1419 1417 1415 1413 1411 1409 1407 1405 1404 1402
1433 1432 1433 1432 1432 1432 1432 1432 1432 1432 1432 1432 1432 1431 1431 1431 1430 1430 1429 1429 1429 1428 1428 1428 1426 1425 1424 1424 1423 1422 1421 1419 1417 1415 1413 1411 1409 1407 1406 1404 1402 1400 1398
1430 1430 1429 1429 1429 1429 1429 1429 1429 1429 1428 1429 1429 1428 1427 1427 1426 1426 1426 1425 1424 1423 1423 1423 1422 1421 1421 1420 1419 1418 1417 1415 1413 1412 1410 1408 1406 1404 1402 1401 1399 1397 1395
1428 1428 1427 1426 1426 1426 1427 1426 1426 1425 1426 1425 1425 1425 1424 1423 1423 1423 1422 1421 1420 1419 1419 1419 1418 1418 1417 1416 1416 1415 1413 1412 1409 1408 1407 1405 1402 1401 1399 1398 1396 1394 1393
1427 1426 1425 1425 1425 1424 1424 1424 1424 1424 1423 1422 1422 1421 1421 1421 1420 1420 1419 1418 1417 1416 1416 1416 1415 1414 1413 1412 1412 1411 1410 1408 1406 1405 1404 1403 1400 1399 1396 1395 1394 1392 1390